Theta_e
321 321 320 319 319 319 319 320 320 319 318 316 315 314 314 315 313 312 313 317 318 317 316 315 315 314 315 316 316 316 318 320 317 315 315 314 314 315 314 313 314 314 314 314 315 314 314 315 313 313 316 317 318 320 320 319 329 343 343 336 331 324 318 317 318 320 320 316 316 315 317 315 309 308 307 305 303 302 302 301 301 301 301 301 301 300 299 299
321 321 320 319 319 318 319 320 321 321 320 319 317 315 315 315 315 313 312 315 318 318 317 315 315 315 316 317 317 317 318 320 318 316 315 314 314 314 313 313 314 314 315 315 316 314 315 316 311 313 320 319 318 320 322 321 325 335 335 329 330 328 316 314 317 315 317 316 316 315 315 315 312 309 308 307 304 302 303 301 300 300 300 300 299 299 299 298
320 319 319 318 318 318 319 320 322 323 322 321 319 318 316 315 315 315 312 313 317 318 317 316 315 315 316 317 317 317 316 319 321 317 314 313 314 313 312 313 314 315 315 314 316 315 315 316 310 312 322 320 320 321 323 323 322 326 330 327 330 329 315 313 317 315 317 316 316 315 313 314 312 310 309 307 305 304 304 302 301 300 300 300 299 298 298 298
317 317 317 317 318 318 318 319 321 323 324 323 322 320 318 316 315 316 314 313 315 318 317 316 316 315 316 316 316 315 317 322 323 317 314 313 313 311 311 313 314 315 315 314 315 315 314 314 311 314 320 322 325 323 320 322 321 321 323 325 325 321 315 314 315 316 317 315 316 315 313 313 311 311 308 306 308 305 303 302 301 300 299 300 299 297 297 297
314 315 315 316 316 317 317 318 320 322 324 324 323 322 320 318 316 316 315 313 313 317 318 316 316 316 315 316 316 314 319 326 321 314 313 313 312 311 312 312 314 315 314 314 314 315 314 312 315 322 322 321 325 323 319 319 318 317 318 323 322 317 315 314 315 317 315 315 317 315 313 312 312 312 307 309 314 309 304 303 301 300 299 299 298 297 297 296
313 313 314 315 316 316 317 318 318 320 323 324 324 323 322 320 318 316 316 314 313 315 318 317 316 316 317 316 315 315 320 324 318 313 312 313 312 311 312 312 315 315 313 313 312 314 316 316 319 323 322 320 319 318 319 319 316 316 317 319 317 316 315 314 314 316 316 317 316 314 313 312 313 311 305 308 312 307 303 301 300 299 298 298 297 297 297 296
312 313 314 314 315 315 316 317 317 319 320 323 324 323 323 321 320 318 317 315 313 314 317 318 316 318 320 316 317 321 324 322 314 312 313 313 312 312 312 311 314 315 314 312 311 316 321 322 320 318 321 322 317 316 318 318 316 316 319 319 316 314 315 314 314 315 317 317 313 312 312 312 315 312 306 305 304 302 300 299 298 298 297 297 297 296 296 296
312 312 313 314 314 314 315 316 317 317 318 320 322 322 322 321 320 319 318 317 314 313 316 318 316 317 318 317 322 327 326 320 314 311 312 313 313 312 312 311 313 314 314 313 312 316 320 321 318 315 318 319 315 315 315 316 318 318 319 319 317 316 315 315 316 317 317 314 314 316 315 312 312 310 305 302 301 300 299 298 297 297 296 296 297 297 295 295
310 311 312 313 314 314 315 315 316 317 317 318 319 320 321 320 320 320 319 317 315 313 315 318 316 316 316 316 322 328 323 317 312 311 311 312 313 312 312 311 312 314 315 314 311 312 318 318 316 314 315 316 314 315 315 314 317 318 318 316 315 316 316 315 315 316 316 313 315 316 313 308 306 308 305 301 300 299 298 298 297 297 297 297 297 296 295 295
309 310 311 312 313 314 314 315 316 316 316 316 317 318 319 319 319 320 319 317 315 314 315 317 316 316 318 317 323 327 320 313 311 311 310 312 312 312 312 310 312 314 314 314 311 311 316 317 315 314 315 316 313 314 315 314 315 316 317 315 315 315 314 315 314 315 315 313 315 315 312 306 305 311 308 301 299 299 298 298 297 297 297 297 297 296 295 295
309 309 310 311 312 313 314 315 315 316 316 316 316 316 317 317 318 319 319 317 316 314 315 318 317 316 317 320 328 328 316 312 312 311 310 311 312 312 311 310 311 312 313 315 313 311 313 313 313 313 314 314 314 315 314 313 314 314 315 314 316 316 313 313 314 314 313 312 315 316 312 306 305 312 310 301 299 299 297 298 298 298 298 297 298 297 295 294
308 309 309 309 311 312 313 314 315 315 316 315 315 315 315 316 318 318 317 316 315 315 317 317 316 316 316 320 328 323 313 314 314 311 310 310 312 313 311 311 311 311 312 314 313 311 310 312 312 314 314 313 314 315 313 313 314 314 314 313 317 320 317 313 313 314 312 312 315 315 312 309 308 312 308 301 299 299 298 298 298 298 298 298 298 298 296 294
308 308 308 309 309 311 313 314 314 315 315 315 315 314 315 316 317 318 317 316 316 316 317 317 315 316 317 320 320 315 313 314 314 311 310 310 312 314 312 310 311 311 311 312 313 311 309 310 311 313 313 313 315 313 312 313 313 313 312 313 317 320 321 316 313 313 312 314 316 313 315 316 313 309 304 300 299 298 298 298 298 298 298 298 298 298 298 295
308 308 308 308 308 309 311 313 314 315 314 314 314 314 315 315 317 317 316 316 316 317 317 316 316 317 319 320 315 312 314 314 314 311 310 310 312 314 312 310 312 312 311 312 311 310 310 310 310 313 313 313 313 310 313 316 315 314 311 319 321 316 324 322 313 314 312 314 315 312 316 318 315 308 301 300 299 298 299 298 297 298 297 297 297 298 298 296
308 308 308 308 308 308 310 312 314 315 314 314 314 314 314 315 317 316 316 316 316 318 317 315 317 319 322 319 313 313 314 314 314 312 310 311 311 313 312 309 312 312 311 311 311 310 309 310 312 316 315 312 313 315 320 323 324 320 313 323 325 315 326 327 314 315 313 313 313 312 317 317 313 307 301 300 299 299 299 298 297 298 297 297 297 297 298 296
309 309 308 308 308 308 309 312 314 315 315 314 314 314 313 315 316 315 317 316 316 317 317 319 318 319 323 319 313 313 314 314 316 312 311 312 309 311 311 310 312 312 312 311 311 310 309 313 314 314 314 311 317 326 328 329 336 332 318 319 325 318 318 319 314 315 315 313 312 312 316 317 312 306 302 301 300 299 299 298 298 297 297 297 296 297 298 296
310 309 308 309 308 308 309 311 314 316 316 315 315 314 313 315 315 315 317 315 317 318 317 319 318 317 320 317 314 316 315 315 316 313 312 312 310 310 310 311 311 309 311 310 310 312 310 312 311 311 317 314 318 327 326 325 332 333 324 319 323 319 313 314 314 314 313 313 313 312 312 314 312 306 303 302 300 299 299 298 298 296 296 296 296 297 297 297
310 309 309 309 308 308 309 311 314 317 317 317 316 315 315 315 315 317 318 316 317 318 318 319 318 316 316 315 316 317 316 315 315 314 312 312 311 310 311 310 309 309 313 313 312 314 313 316 319 322 324 316 318 325 321 322 322 320 321 318 318 317 312 313 313 311 313 313 313 313 312 312 311 306 304 303 300 299 299 298 296 295 295 295 296 297 297 297
310 310 310 309 309 309 310 312 315 317 317 316 316 316 314 315 318 318 316 315 317 319 320 321 320 317 315 317 317 315 314 314 313 313 312 312 309 309 311 310 312 313 317 322 319 318 320 327 330 327 324 317 318 323 317 319 320 314 316 317 316 316 312 311 311 312 313 313 314 313 312 312 311 307 304 303 300 299 299 297 296 295 295 295 296 296 297 298
310 310 310 310 310 310 312 314 315 317 315 314 315 315 314 318 324 325 320 318 317 315 318 322 320 319 318 319 317 314 313 312 312 313 311 310 308 310 311 311 321 323 319 323 320 319 325 332 329 324 326 321 317 319 316 315 316 312 313 315 315 314 312 310 312 312 310 312 315 314 312 312 311 308 305 303 300 299 299 297 296 295 294 295 296 296 297 298
310 310 311 311 311 312 313 314 316 316 313 312 312 310 312 314 317 320 321 321 315 308 315 320 315 317 317 316 315 312 312 313 312 312 311 309 309 311 311 313 323 325 321 320 319 323 326 326 327 328 326 319 314 316 315 312 312 311 312 314 314 314 312 310 311 311 308 310 315 314 311 311 310 307 305 302 300 299 299 297 296 295 294 295 296 296 297 297
312 311 312 312 313 313 313 315 315 315 313 312 309 308 309 310 312 312 313 321 318 310 314 316 313 317 315 312 313 311 312 314 312 313 311 308 311 312 313 316 318 321 321 319 322 329 329 325 328 327 319 313 312 312 312 311 312 312 312 314 315 314 314 313 311 309 307 309 315 316 311 309 310 308 305 303 300 300 299 298 297 295 294 295 295 296 296 296
313 312 312 314 315 313 313 315 314 314 314 311 307 306 307 309 312 310 311 320 321 316 318 319 318 320 318 313 313 311 313 314 313 314 310 308 312 312 314 318 317 318 317 319 325 326 327 332 330 321 314 311 312 312 312 311 312 314 313 314 316 315 315 316 313 311 310 309 312 313 310 308 308 308 307 303 300 301 300 299 297 295 295 295 295 295 296 296
312 311 313 314 314 313 314 314 313 312 314 311 306 306 307 309 311 312 315 320 321 320 319 318 317 320 320 313 310 312 314 313 313 312 307 309 313 311 314 317 317 318 317 322 329 323 323 326 319 315 313 312 313 314 314 313 315 320 318 314 315 314 314 315 313 312 312 313 313 310 309 310 309 308 308 303 300 301 300 298 296 295 295 295 295 296 296 297
311 312 313 314 315 314 312 312 311 312 316 314 307 306 308 310 311 311 316 320 320 321 316 313 316 320 317 311 310 313 313 312 312 309 306 308 312 311 312 313 315 321 319 316 318 319 319 315 312 314 314 313 314 315 319 317 317 323 323 317 316 315 315 315 313 312 313 316 314 309 311 316 311 308 308 303 300 300 298 296 295 295 295 295 295 296 297 299
312 313 313 314 316 313 311 315 313 311 318 316 308 306 307 310 311 311 319 323 319 320 319 315 317 318 313 312 312 312 315 315 309 306 306 307 309 310 313 313 313 318 318 314 315 318 315 310 313 317 316 318 317 317 322 319 315 318 319 318 317 314 312 312 310 312 315 315 311 308 311 313 309 310 310 304 300 300 297 295 295 294 294 294 294 295 297 297
313 313 313 314 315 312 312 318 314 312 318 317 310 305 306 310 309 310 318 319 316 321 324 317 315 316 314 312 310 313 319 316 308 305 305 307 307 308 314 317 314 313 313 316 322 321 314 310 315 316 316 319 317 318 321 317 317 320 316 315 314 310 310 311 309 310 313 311 309 309 309 308 307 310 310 304 301 300 296 295 295 294 294 293 294 295 296 296
312 312 312 314 315 311 309 312 311 312 315 314 309 305 308 309 309 314 315 308 313 322 324 319 313 313 313 309 308 313 314 312 313 309 303 305 306 307 313 317 319 318 313 317 325 322 314 313 316 317 316 317 319 324 323 316 318 321 313 309 309 308 309 310 308 310 310 308 309 310 307 308 311 311 306 301 301 301 297 295 294 294 293 293 293 294 295 296
312 313 312 313 315 311 309 309 308 312 314 311 306 305 308 306 309 323 317 305 314 322 319 316 313 313 314 311 311 313 311 311 316 310 304 305 305 307 310 312 317 316 312 315 321 320 314 313 318 320 319 319 323 324 321 317 316 314 310 309 311 310 308 308 308 309 310 310 310 310 308 309 314 313 304 299 301 302 299 297 295 294 293 292 293 294 294 295
314 315 313 312 315 313 310 307 308 313 313 308 305 306 308 311 320 327 315 309 317 320 314 313 315 315 315 315 315 314 312 313 312 307 307 306 306 308 306 308 313 314 316 316 317 319 313 308 313 316 316 319 320 313 311 313 311 309 311 312 313 313 310 310 311 309 310 313 313 312 310 309 313 313 304 301 303 302 301 299 296 294 293 292 292 293 293 294
314 314 312 312 315 313 309 308 311 312 307 305 306 307 311 321 329 325 315 312 313 316 316 315 316 316 316 319 320 315 312 314 312 308 310 308 309 311 308 312 319 321 328 326 319 319 314 309 312 313 312 314 314 309 309 312 312 312 315 313 314 316 314 314 314 312 313 320 318 310 307 307 311 312 305 302 302 300 301 300 297 295 293 292 292 292 293 293
313 313 313 314 315 314 311 310 312 310 305 304 307 312 316 317 319 321 322 318 311 314 321 320 318 317 318 319 321 319 315 316 313 310 315 314 312 316 316 322 326 323 330 331 324 322 319 316 313 310 309 311 314 313 311 313 314 313 314 314 316 319 320 319 318 315 316 321 312 303 304 306 308 310 306 303 302 299 299 299 298 296 293 292 292 292 292 293
313 312 314 314 314 316 314 311 311 309 306 305 308 318 323 315 315 320 322 318 312 315 321 323 321 320 319 319 324 324 317 318 316 310 317 316 314 322 322 321 324 320 321 323 323 323 324 321 312 310 312 312 314 315 315 317 313 310 312 317 320 321 322 322 320 317 319 320 309 300 303 307 307 308 306 304 302 299 298 298 298 296 293 292 292 292 293 293
313 312 313 314 313 316 315 314 313 307 305 308 312 320 321 315 318 319 319 318 316 317 321 322 321 319 319 321 327 326 317 320 319 311 316 317 315 324 322 315 318 321 321 319 321 322 324 326 319 315 315 312 310 314 322 322 312 308 311 315 318 320 323 323 323 322 321 319 310 301 304 311 312 307 301 298 296 296 297 296 296 294 292 292 292 292 294 293
313 311 312 314 314 314 314 316 316 307 304 308 311 317 317 315 318 319 321 324 319 318 320 321 321 320 320 324 326 323 317 318 318 313 317 319 319 327 328 321 319 322 323 320 321 319 318 326 320 309 307 309 310 311 314 318 313 307 307 309 312 317 319 319 319 317 312 311 309 304 307 311 308 302 296 293 293 293 295 294 293 293 292 292 293 292 292 292
312 312 312 313 313 313 313 316 316 307 305 307 309 314 314 314 320 321 320 322 321 322 320 320 323 322 323 327 327 321 316 317 318 316 318 319 319 322 327 328 321 317 318 320 322 318 316 323 314 304 305 306 307 306 306 313 316 308 305 307 310 310 311 314 313 308 305 309 310 308 309 309 307 304 295 292 293 292 292 292 291 292 292 292 292 291 291 292
312 311 312 313 313 314 313 315 314 307 305 306 309 315 313 313 322 324 322 320 320 324 322 320 322 323 325 326 325 324 318 317 317 318 321 320 316 318 321 323 319 314 315 319 321 319 318 320 312 308 311 304 299 303 304 305 309 309 309 309 307 305 306 310 313 309 307 311 312 308 309 309 312 309 296 291 294 292 291 291 291 291 292 292 291 291 292 292
312 311 312 313 313 313 313 314 312 307 307 306 308 315 316 313 316 319 322 319 317 321 323 321 319 320 325 324 323 324 319 317 318 318 323 320 316 319 319 318 317 314 314 315 317 318 317 318 313 306 307 303 299 305 308 302 301 306 309 305 306 310 310 309 310 311 312 314 315 312 311 310 311 310 300 294 293 293 291 290 291 292 291 291 291 291 291 292
312 312 313 314 313 313 314 313 309 307 308 308 309 314 316 314 313 315 320 319 317 320 321 321 317 315 321 323 324 323 317 318 319 316 319 318 316 318 316 315 317 312 311 313 316 318 315 319 317 304 301 303 302 307 313 308 300 301 302 300 303 308 311 309 308 310 315 316 317 317 316 314 312 310 307 299 293 293 292 290 291 291 290 291 291 291 291 291
312 313 315 313 313 314 313 310 307 306 308 310 311 313 314 315 315 315 317 316 316 318 319 321 319 315 318 320 322 323 318 318 319 317 317 317 316 316 313 315 318 312 309 311 314 315 313 317 319 307 301 304 306 307 311 311 305 302 301 301 301 302 306 309 306 306 311 313 315 316 316 317 312 307 308 302 295 293 292 290 291 291 290 290 290 291 291 291
312 314 315 312 312 313 310 309 309 308 309 311 311 311 311 314 316 316 317 316 315 316 316 320 321 317 318 317 318 321 319 318 318 316 318 318 316 316 313 315 318 313 310 311 313 315 315 316 317 311 306 308 310 307 306 309 309 305 304 304 303 302 305 310 309 307 307 310 313 315 316 318 309 302 304 302 296 293 292 291 292 291 290 290 290 291 291 291
313 315 313 311 311 311 310 312 312 310 310 311 312 311 312 313 314 315 316 316 315 315 314 317 320 318 317 317 318 320 320 321 319 316 318 318 314 315 316 316 315 312 312 313 313 314 315 316 314 313 313 309 304 303 303 305 305 304 305 306 305 304 306 311 314 310 307 306 307 308 312 314 305 299 301 300 296 294 292 292 292 291 290 290 290 291 292 293
314 314 310 309 310 310 311 314 314 312 311 311 311 312 312 312 314 315 316 316 316 316 315 315 317 316 316 316 317 318 319 321 320 317 319 319 315 315 317 316 312 312 314 313 311 310 312 315 313 314 317 310 301 299 301 301 300 303 305 304 304 305 306 309 311 310 310 308 305 306 310 311 303 298 299 297 295 294 293 292 292 291 290 290 290 291 292 293
314 312 309 309 309 310 312 314 313 313 312 312 312 312 311 311 312 313 315 316 316 317 316 315 315 315 316 317 315 317 318 318 318 318 318 319 317 313 313 313 311 311 314 314 313 312 312 316 316 315 319 316 308 305 306 303 300 302 304 303 303 304 305 307 306 308 310 309 307 308 312 311 301 296 297 295 294 294 293 292 292 291 290 290 290 291 291 292
313 312 310 309 308 310 312 313 313 314 312 312 313 312 312 313 313 312 313 314 315 317 317 317 317 315 316 318 315 316 317 315 317 318 316 317 316 308 306 309 309 310 314 314 313 312 314 316 316 316 318 318 313 312 316 312 303 300 301 302 302 303 304 305 305 307 309 308 307 308 311 310 301 295 296 295 293 293 292 291 291 291 290 290 290 291 291 292
313 313 312 310 308 309 311 311 311 313 312 312 312 312 312 312 313 313 314 313 313 315 316 318 317 315 316 317 315 316 317 314 316 318 316 318 319 309 302 303 305 309 313 311 310 313 317 315 313 314 316 315 313 312 315 315 308 304 304 302 300 302 303 304 306 307 308 307 307 307 308 309 305 300 297 294 292 292 292 291 291 290 290 290 290 290 291 291
313 313 312 311 310 310 310 311 311 312 312 312 313 314 314 312 311 313 313 313 314 314 314 315 315 314 316 316 315 316 316 314 315 316 316 320 319 308 300 299 301 306 308 306 307 314 317 314 312 312 313 313 314 313 313 313 311 311 311 306 302 301 302 304 306 306 307 307 308 309 307 309 309 305 300 296 293 292 292 291 291 290 290 290 290 290 291 291
314 314 312 311 313 312 311 312 312 312 312 311 311 312 313 313 312 312 313 314 315 313 313 314 315 314 315 315 315 315 315 315 315 314 314 317 315 309 304 301 301 304 306 303 304 310 314 314 312 312 312 311 312 312 313 313 311 311 312 311 307 302 301 304 304 305 306 306 308 309 309 309 310 307 304 299 294 293 293 291 290 290 290 290 290 290 290 290
314 314 312 311 311 312 311 311 312 312 312 311 311 310 311 312 312 312 313 314 314 313 313 314 314 313 314 315 315 315 315 315 315 314 313 314 314 312 311 308 304 302 302 302 303 306 311 312 311 311 311 311 310 310 311 310 310 310 310 310 310 305 302 303 303 303 304 305 306 307 308 308 308 307 306 302 297 294 293 292 290 290 290 290 289 289 289 289
315 314 313 311 310 310 311 311 311 312 312 310 311 311 310 310 310 311 313 314 314 314 313 313 314 313 313 314 314 314 314 314 315 315 313 313 314 313 312 314 310 302 299 301 303 304 308 311 311 311 311 310 310 310 310 310 310 310 310 309 310 309 307 305 303 303 303 304 304 304 305 306 305 305 305 304 300 296 294 292 290 290 290 289 289 289 289 289
314 313 312 312 310 309 310 310 311 312 313 311 311 310 310 310 309 309 311 312 313 314 313 313 314 313 313 314 314 314 314 314 314 313 312 313 314 314 312 314 313 306 300 300 302 304 306 309 311 311 311 311 311 310 309 308 307 307 308 308 308 309 310 308 306 305 305 304 304 304 304 304 304 304 303 302 300 297 294 292 290 289 289 289 289 289 289 289
313 312 311 313 313 311 310 310 310 312 313 312 311 311 310 310 310 309 310 311 311 312 313 314 313 313 314 314 313 313 313 313 314 316 315 313 313 315 314 312 311 309 303 299 302 304 305 307 310 310 311 311 309 306 305 306 308 309 310 310 308 307 307 308 308 307 306 305 305 306 305 305 304 304 302 300 298 296 294 292 291 290 289 289 289 289 289 288
Wind_Speed
17 18 18 19 20 21 21 22 23 23 24 24 23 23 23 24 23 21 19 19 18 15 11 7 6 8 8 8 6 6 6 9 12 17 14 8 11 9 8 9 9 10 9 9 13 10 7 7 9 13 7 1 2 0 3 2 2 5 3 4 2 1 2 3 5 5 3 3 3 3 1 9 8 4 5 6 12 11 11 11 9 10 10 11 15 15 14 15
17 17 18 19 19 20 21 21 22 22 23 23 23 22 22 23 23 22 19 18 17 15 12 8 4 6 8 7 4 2 5 6 8 14 12 10 10 8 8 9 8 9 10 10 12 10 6 6 9 11 6 2 3 1 2 2 3 4 3 4 1 4 1 2 6 4 3 5 3 3 1 5 7 8 5 5 5 9 12 7 6 10 8 9 13 13 14 16
16 17 18 18 18 19 20 20 21 21 22 22 22 22 21 21 22 22 20 17 16 15 12 9 5 4 8 7 4 2 5 5 4 7 10 10 8 7 9 9 8 9 11 11 9 8 5 7 7 5 4 3 3 2 3 2 2 2 3 3 4 5 1 3 3 5 4 6 5 2 2 3 3 5 5 9 7 5 10 8 5 8 7 7 8 11 14 16
16 17 18 18 18 19 19 20 20 20 21 21 22 21 21 20 21 21 20 17 15 14 11 9 7 2 7 8 5 1 5 5 1 5 8 7 6 7 8 8 8 8 10 11 7 7 5 4 3 2 3 3 4 3 2 2 2 1 2 3 5 4 3 3 4 5 4 5 6 3 2 4 2 3 7 13 9 2 7 9 9 12 12 9 7 9 13 16
15 17 17 18 18 19 19 19 20 20 20 20 21 21 20 20 19 20 21 18 15 14 11 8 6 4 4 7 6 2 4 4 2 4 6 4 5 7 8 8 7 7 9 11 8 7 7 6 5 5 4 3 4 4 2 3 2 1 2 3 5 3 3 5 5 4 3 4 5 3 4 2 2 4 6 11 7 5 7 7 10 13 13 11 10 10 12 14
14 16 17 17 18 19 19 19 19 19 19 20 20 20 20 20 19 19 20 18 14 13 12 8 5 3 5 5 5 3 3 1 3 3 4 2 4 5 7 8 7 7 7 10 11 9 8 8 6 4 3 3 2 1 2 4 3 1 4 3 3 3 4 5 5 4 4 6 5 3 3 3 4 4 1 3 4 5 7 9 11 12 13 14 13 11 10 10
13 15 16 17 18 18 19 19 19 19 19 19 19 19 20 19 19 19 19 19 15 12 11 8 4 1 5 6 4 3 4 2 3 2 3 2 3 4 5 6 5 5 5 9 12 8 6 8 6 3 3 3 1 1 1 4 4 3 3 4 2 2 4 6 6 5 5 7 3 3 5 4 7 5 2 4 5 7 10 11 13 14 15 15 11 9 9 10
13 14 14 15 17 17 18 18 19 19 19 19 19 19 20 20 19 19 19 20 15 12 11 8 5 1 3 2 4 3 2 3 2 1 2 1 1 3 4 5 4 4 6 11 10 4 3 6 3 1 2 1 2 0 2 4 4 3 3 3 2 2 0 4 4 5 6 5 2 7 6 3 7 6 4 5 7 8 10 11 12 13 12 11 9 8 8 9
12 13 14 15 15 17 17 18 19 19 19 19 19 18 19 20 20 20 19 19 15 11 11 9 4 1 3 2 5 3 2 3 3 1 2 0 1 3 3 4 5 4 8 9 8 6 3 2 0 0 1 2 1 1 1 2 2 3 3 2 1 4 4 0 2 4 5 2 4 8 6 1 6 7 5 4 7 8 10 10 9 9 9 8 8 7 8 8
12 12 13 14 15 16 17 18 18 19 19 19 19 19 19 20 20 20 20 19 14 11 11 9 4 1 4 3 6 2 3 4 4 3 3 2 2 2 3 5 5 4 6 6 8 8 4 4 2 1 2 1 1 2 1 3 2 3 2 1 2 4 5 1 2 3 3 2 4 7 4 5 6 3 2 6 8 9 10 9 7 8 8 8 7 7 9 10
11 12 13 14 15 16 16 18 18 19 19 19 20 19 19 20 20 21 21 17 12 10 11 10 5 2 4 5 5 2 4 5 3 4 5 3 3 1 3 6 5 4 5 5 5 6 5 5 4 2 1 1 1 2 1 2 1 2 1 3 6 5 4 2 3 4 2 2 5 8 6 7 4 2 6 11 10 10 10 9 7 7 7 7 7 6 8 9
11 12 13 14 15 16 17 18 18 19 20 20 20 20 20 20 20 22 20 14 10 9 10 8 4 3 4 4 3 5 6 5 2 4 4 3 2 2 4 6 6 5 3 3 3 4 5 4 4 3 1 0 1 2 1 2 1 1 2 2 7 8 4 4 2 3 2 2 5 7 3 4 7 5 8 14 12 9 10 9 7 7 7 6 7 5 6 8
11 12 13 14 15 16 17 18 19 20 20 21 21 21 20 19 21 22 17 11 8 9 9 6 2 5 5 1 2 6 7 5 2 3 3 3 1 1 4 5 5 5 4 3 3 4 4 3 4 3 1 2 1 1 2 1 1 0 2 2 2 7 5 5 1 1 3 2 3 4 2 5 8 6 10 15 13 12 10 9 8 7 6 6 6 5 5 7
11 12 13 14 15 16 17 18 19 19 21 21 21 22 20 20 22 20 13 9 7 8 8 2 2 5 4 1 3 6 6 4 2 2 2 2 0 0 3 4 4 5 4 3 3 4 4 3 4 3 1 1 2 2 2 4 3 1 1 2 2 1 4 7 0 4 4 2 4 5 4 7 7 4 11 14 13 14 12 10 9 7 6 5 5 6 5 6
10 11 13 13 14 15 16 18 18 20 21 20 22 21 21 22 21 17 10 6 7 8 5 3 4 3 3 1 3 6 5 5 3 1 2 2 1 1 3 3 2 3 3 2 3 3 3 3 4 3 1 2 3 3 3 4 3 3 1 3 3 2 5 8 2 6 6 3 4 6 3 7 6 6 10 11 11 13 11 10 9 8 7 6 5 6 5 6
10 11 12 13 14 15 16 17 17 19 20 20 22 21 21 22 18 16 8 4 9 8 3 3 4 3 2 0 3 6 5 6 4 2 1 2 2 2 4 1 2 1 1 1 2 2 2 4 3 2 1 3 5 4 3 4 4 3 2 2 3 3 3 6 3 3 5 2 0 3 4 5 4 7 9 9 10 10 10 10 9 8 8 7 5 5 5 6
10 10 12 13 14 14 15 16 17 18 19 20 22 21 22 18 15 13 5 3 10 3 4 2 3 3 1 2 4 3 4 6 5 3 1 2 2 3 3 2 2 2 2 1 1 2 3 4 2 0 2 4 3 4 4 4 4 4 2 2 4 3 3 3 5 4 2 2 4 4 5 7 4 7 11 10 10 10 10 11 10 9 7 6 6 5 6 6
10 10 11 12 13 14 14 15 16 18 19 20 20 22 20 13 11 6 5 5 9 2 3 1 2 2 2 2 2 3 3 4 4 3 3 2 2 3 2 1 2 3 3 3 2 3 3 3 2 1 3 4 3 5 1 3 3 4 4 3 4 3 4 4 5 4 2 3 5 4 6 10 6 7 11 10 10 10 10 10 9 8 8 7 7 6 6 6
12 11 11 11 12 13 13 14 15 17 18 19 20 19 14 8 7 3 2 8 5 2 1 2 2 1 2 3 2 2 1 3 3 4 5 2 2 3 0 2 2 3 3 2 2 3 2 3 4 2 2 2 1 4 5 7 6 6 5 4 5 5 6 6 5 5 4 4 7 8 9 10 6 8 11 10 9 9 8 8 7 7 7 7 7 6 7 6
13 12 11 11 12 13 13 13 14 16 17 18 19 14 6 5 5 3 5 7 1 3 2 5 4 2 2 1 1 1 1 3 3 4 5 1 2 0 2 2 5 4 3 1 3 2 4 4 2 4 5 6 6 6 6 5 6 4 3 4 6 6 7 6 4 5 3 3 8 8 9 10 7 8 12 10 9 8 8 9 9 8 7 7 8 7 7 7
14 13 11 11 12 12 12 12 13 14 13 14 15 8 2 2 2 2 5 7 7 3 3 6 3 3 4 2 2 1 1 1 2 3 3 2 1 4 1 2 4 2 1 0 2 3 5 2 5 8 8 8 6 5 3 2 3 3 3 4 6 5 8 8 5 4 1 3 6 5 6 10 9 9 9 9 10 11 13 14 13 11 9 8 9 9 8 6
15 13 12 11 11 11 11 11 11 12 10 10 9 7 5 4 4 2 0 4 9 3 2 4 1 3 4 2 3 1 3 1 3 4 2 1 1 3 1 3 4 2 2 2 1 4 5 3 9 8 5 5 2 1 2 3 3 2 1 1 5 4 5 8 5 2 1 2 5 5 5 8 9 9 8 10 13 12 13 14 13 13 12 9 9 9 8 7
17 14 12 11 11 11 10 9 9 10 8 7 7 7 5 4 6 4 2 1 7 4 1 2 2 2 2 2 4 4 3 2 3 3 2 1 1 2 3 4 4 2 1 2 3 1 2 6 8 4 5 6 1 1 3 1 2 3 2 1 5 4 2 5 5 4 3 2 4 7 8 6 7 10 9 10 10 7 8 9 9 10 11 11 11 9 8 8
16 14 13 11 11 10 9 9 7 6 6 6 7 5 4 4 6 4 1 0 5 5 2 2 2 3 2 2 4 5 3 2 3 2 1 2 3 1 3 5 4 2 3 4 7 4 6 7 3 5 6 6 2 0 4 3 3 4 5 5 7 6 5 7 4 4 5 4 3 5 8 6 7 12 12 4 3 4 6 8 8 9 9 9 9 8 8 8
14 13 14 11 10 10 9 8 4 3 3 3 4 3 4 5 6 4 1 2 3 5 2 2 1 2 4 3 3 3 1 1 2 2 1 2 4 2 1 3 3 3 6 4 5 3 8 5 4 6 3 4 4 3 4 6 3 5 5 9 10 9 8 6 5 5 4 4 4 3 5 6 2 8 10 1 3 6 6 9 12 10 9 9 8 8 8 7
12 13 15 10 9 11 7 4 2 3 3 1 2 1 3 5 6 4 2 4 3 5 1 1 1 2 4 3 2 2 1 2 3 1 2 2 3 2 2 1 1 2 6 3 1 2 3 2 4 6 4 4 3 5 5 7 3 3 5 6 7 6 5 4 4 3 2 3 4 2 1 8 2 3 8 5 8 9 7 9 13 11 10 9 8 8 8 7
10 12 14 8 8 10 6 1 2 3 1 1 0 0 2 3 4 3 2 4 4 3 3 1 0 3 4 1 1 3 2 3 1 1 1 2 1 2 2 2 1 2 3 3 2 3 3 2 4 4 4 4 4 5 5 7 6 3 4 3 4 3 3 2 0 2 3 2 6 2 4 7 7 6 8 8 10 9 9 11 12 12 12 10 9 9 8 8
10 11 13 7 6 8 5 3 3 2 2 2 1 1 1 3 3 1 4 2 4 1 2 1 1 3 2 1 1 3 2 1 2 1 1 2 1 3 1 5 6 5 3 5 3 6 3 4 5 5 4 4 6 6 7 9 4 6 4 3 2 3 4 2 2 4 2 3 7 5 6 4 8 5 2 5 8 10 12 15 15 15 14 11 10 10 9 8
9 10 12 8 5 5 5 5 4 3 2 2 1 1 2 3 2 4 4 2 3 0 1 1 2 1 1 2 1 1 1 1 1 2 2 2 1 3 1 5 6 5 2 3 5 6 2 4 7 7 5 6 6 4 6 8 4 3 3 2 2 1 1 1 2 2 2 2 9 7 7 4 7 4 2 2 6 12 14 14 15 15 12 11 11 10 9 7
7 8 11 9 6 5 6 6 6 4 4 2 1 2 3 2 3 5 1 4 2 0 0 1 2 1 4 2 2 1 1 2 0 1 3 1 2 4 1 1 5 4 1 3 3 5 3 1 3 4 4 5 4 2 2 4 4 2 4 3 4 4 2 2 1 2 3 3 10 8 11 8 6 3 6 5 6 10 12 11 12 13 11 11 12 10 9 7
11 10 10 8 7 6 5 5 4 4 3 2 4 3 2 2 4 4 5 5 2 1 1 1 1 2 5 4 2 1 2 2 1 2 1 0 2 4 2 0 3 3 3 4 3 5 4 1 2 2 2 4 6 4 2 3 2 3 4 3 4 5 3 4 4 3 1 6 7 5 8 8 7 6 6 8 8 7 10 12 16 18 15 14 12 9 8 8
15 15 11 8 9 8 6 4 2 1 1 4 4 3 3 1 0 4 5 4 2 2 3 2 2 3 4 2 2 3 3 2 2 4 4 3 2 2 3 4 2 2 5 2 2 5 3 4 3 2 1 4 6 3 2 5 5 4 3 3 3 4 3 3 3 0 3 7 4 1 4 5 10 10 8 13 13 8 10 13 16 19 17 15 12 9 8 7
15 14 11 9 10 11 9 7 5 4 2 5 3 4 6 3 5 6 4 3 2 3 2 2 2 3 5 2 3 3 2 3 3 3 3 3 1 3 4 4 6 3 4 3 1 3 3 5 1 1 2 3 7 5 2 2 1 4 4 3 2 1 3 4 4 3 5 6 3 2 2 3 9 8 9 14 13 9 11 11 12 15 17 16 12 9 8 7
13 13 12 12 13 13 12 9 7 5 4 4 3 4 4 4 6 4 5 5 3 1 1 2 3 3 4 3 4 4 3 3 3 4 1 1 0 3 4 4 4 5 2 2 1 2 2 5 3 5 2 3 8 6 5 5 4 4 4 4 4 3 2 4 3 4 6 6 3 0 1 4 5 3 5 9 7 5 8 7 7 10 12 12 9 8 8 8
11 13 15 15 14 15 13 11 9 5 5 4 4 3 6 6 4 3 5 5 3 0 1 1 4 4 2 3 3 2 3 4 1 3 2 2 3 4 3 5 6 5 4 2 2 2 4 6 5 2 1 4 6 4 4 6 3 2 3 4 2 4 4 3 3 4 3 5 4 3 4 6 5 3 2 1 2 2 4 5 9 10 10 9 8 8 8 8
11 13 15 15 16 15 13 11 9 7 6 5 3 7 8 5 4 5 4 4 4 4 3 2 3 4 4 3 2 3 2 2 1 2 2 3 3 4 5 5 7 8 7 5 3 2 2 5 3 2 2 2 3 3 2 2 2 2 2 3 4 3 4 2 3 0 2 3 5 3 5 6 2 4 1 4 2 3 4 6 10 11 11 10 9 8 8 8
13 12 11 13 16 16 14 11 9 9 5 5 6 9 6 6 6 6 4 3 3 5 7 2 2 5 5 3 3 5 2 0 1 2 2 3 3 5 6 4 5 12 11 5 2 3 2 4 3 2 1 2 1 1 2 2 3 5 3 5 3 2 3 2 2 2 1 4 5 2 8 10 3 3 2 4 4 6 6 7 9 9 9 10 9 8 8 8
14 9 8 15 19 15 13 12 11 9 4 3 8 7 4 6 6 5 5 4 3 4 6 5 5 5 6 5 4 4 4 3 3 3 3 3 4 5 6 4 5 9 8 4 1 2 2 3 5 1 1 2 2 2 1 3 2 5 3 3 2 2 2 2 2 2 1 4 7 3 6 11 7 5 3 6 10 11 10 8 9 11 12 10 9 9 9 8
13 6 5 14 21 17 13 13 12 7 3 5 10 7 4 5 6 6 5 4 2 3 4 6 5 4 5 6 4 3 5 6 5 4 3 3 4 5 6 5 4 3 3 6 5 2 3 1 4 1 1 2 2 1 3 2 1 2 1 2 1 2 3 2 2 2 2 4 8 5 6 8 6 6 8 13 15 15 13 10 12 14 14 11 9 9 9 8
10 3 2 10 21 22 18 15 9 5 4 7 8 5 3 4 6 8 7 6 3 3 4 5 5 5 5 5 4 4 5 6 6 4 4 4 4 5 6 5 5 3 1 4 3 1 3 2 3 2 3 1 2 5 7 8 5 3 2 2 2 2 1 2 2 2 3 4 6 5 9 10 3 4 8 13 15 15 15 14 14 14 12 10 10 10 9 8
6 3 3 11 23 26 20 11 4 5 5 6 5 4 4 4 4 5 8 9 7 3 3 5 6 6 5 4 4 4 4 4 5 5 4 5 5 5 7 8 8 7 3 5 2 3 3 3 3 1 2 4 5 5 6 8 8 7 6 7 7 6 2 3 5 3 3 5 5 2 11 13 3 3 5 9 11 13 14 16 15 12 12 12 10 10 9 8
4 4 2 13 27 28 18 5 4 4 4 6 5 4 4 3 3 5 6 6 7 5 2 3 6 7 6 6 6 5 5 4 6 6 5 8 9 7 7 9 10 10 7 4 2 4 3 3 3 4 5 5 4 2 0 2 3 3 5 6 6 6 6 6 9 3 2 5 3 1 11 14 3 4 5 6 9 11 13 16 13 10 11 11 10 9 9 8
4 3 3 16 30 25 11 5 4 4 6 4 4 5 4 3 4 5 5 6 6 5 5 4 5 7 7 6 6 6 6 5 7 8 6 7 8 7 5 10 11 9 6 3 2 2 2 2 3 5 4 1 2 4 4 4 3 2 5 5 7 9 10 9 6 1 1 5 3 2 12 13 3 2 2 2 5 8 11 14 13 10 9 9 10 9 8 7
3 2 2 16 29 20 8 6 7 8 8 4 6 9 6 4 6 8 7 9 8 5 6 6 5 7 9 6 6 7 7 6 7 9 8 6 4 3 3 9 12 9 6 4 4 4 3 2 3 2 5 4 3 3 4 3 0 4 5 5 9 13 9 3 1 2 4 7 7 5 14 12 2 3 1 2 4 7 9 10 10 11 9 8 9 8 7 7
3 2 1 13 23 15 5 4 4 6 9 9 9 10 8 7 8 12 11 10 8 5 5 6 5 7 6 4 5 7 9 10 9 6 6 5 3 2 0 7 11 9 4 2 4 7 5 4 5 4 5 8 8 5 3 3 3 3 4 7 11 14 13 6 2 5 9 7 8 10 15 13 5 1 1 3 5 7 8 7 8 9 9 9 9 8 7 7
5 4 2 6 10 9 5 3 2 3 6 8 6 9 15 14 8 8 11 11 8 6 6 5 3 5 5 6 7 9 11 13 10 5 3 4 4 2 0 4 6 5 2 1 4 6 3 2 7 9 10 12 14 12 3 5 3 5 7 11 13 14 15 10 6 10 10 4 8 17 19 19 18 8 4 7 8 9 9 9 8 8 9 10 9 8 7 7
5 5 6 6 4 7 8 5 5 4 5 9 7 7 13 17 11 5 8 10 9 9 8 5 5 7 8 10 9 10 13 14 12 8 5 4 3 3 1 1 2 3 2 2 4 4 4 5 11 12 15 18 19 16 5 5 8 12 12 13 13 13 14 14 15 17 8 2 13 24 20 21 26 16 9 10 11 10 10 11 11 11 11 10 8 8 8 7
6 4 7 10 6 7 10 11 12 11 13 12 9 7 9 13 13 10 8 6 7 11 9 6 11 17 15 13 11 11 13 13 10 9 8 6 6 3 0 1 3 4 3 2 3 3 4 8 11 10 15 21 20 17 9 7 11 13 18 20 13 12 17 21 23 22 13 10 19 26 22 23 25 18 12 13 13 13 13 13 12 10 10 10 9 9 9 8
7 2 4 9 8 8 11 15 16 17 20 16 9 12 17 17 16 12 7 5 6 13 14 13 18 20 18 15 13 12 15 13 10 10 11 12 12 7 3 3 3 2 4 4 3 2 4 8 8 8 12 18 18 15 11 12 13 14 24 27 16 14 20 22 22 23 21 21 25 28 28 29 26 19 14 11 12 13 11 9 9 10 11 12 11 11 10 9
8 3 5 6 8 8 5 9 12 13 18 16 13 18 18 17 18 13 8 10 12 12 15 20 22 18 18 19 18 20 22 17 14 15 14 13 12 8 5 5 3 2 3 5 2 2 4 5 3 4 7 15 17 12 9 11 11 16 29 29 17 15 20 20 21 22 20 22 28 29 26 26 25 21 14 8 8 9 8 9 11 11 13 13 12 11 10 9
15 8 10 5 6 9 6 6 10 10 11 13 17 20 15 16 21 16 10 15 19 14 15 24 26 15 13 20 24 27 27 20 19 20 16 14 12 9 7 7 8 7 5 6 4 3 5 3 1 4 4 12 9 2 2 3 5 15 31 31 19 16 19 19 19 20 20 22 26 22 17 21 21 12 6 6 9 10 11 13 13 11 13 14 13 12 10 9
15 9 12 6 6 11 9 8 10 10 11 15 18 18 16 17 18 14 9 13 18 16 13 19 22 13 11 22 30 30 25 19 16 12 8 8 7 5 4 5 10 11 9 7 4 3 6 5 2 4 6 10 2 5 5 3 3 14 21 19 17 20 22 20 17 21 24 21 17 14 16 21 16 4 3 7 9 11 12 13 13 12 12 13 12 11 10 9
Wind_Direction
21 20 18 17 17 18 19 19 18 18 18 17 19 21 21 22 24 27 28 27 27 28 36 56 114 140 142 136 120 109 54 28 39 50 54 15 357 5 5 0 3 7 4 360 0 10 13 6 2 0 6 3 19 337 339 6 58 55 84 76 76 161 116 170 175 185 159 156 247 302 46 124 124 126 133 57 58 81 73 65 71 73 74 94 113 121 112 96
16 16 15 15 15 15 17 16 16 16 15 15 15 16 17 18 18 21 24 25 25 25 28 35 85 157 163 150 145 91 18 358 24 39 30 4 7 12 8 8 8 8 7 4 2 6 358 331 339 359 21 33 341 349 6 356 61 78 110 75 189 198 121 212 170 170 161 150 215 273 153 122 136 156 141 101 100 100 90 76 79 88 86 99 110 112 105 94
12 12 12 13 13 13 14 14 14 14 13 12 11 11 12 14 14 14 18 21 23 24 23 22 41 154 177 171 159 63 360 348 14 13 1 2 13 11 12 10 4 9 9 6 358 354 330 298 315 348 26 25 340 3 28 6 45 101 102 65 243 205 106 286 176 161 191 158 151 203 173 77 125 157 117 121 142 126 123 139 129 124 134 127 120 111 100 89
9 9 10 10 11 11 11 11 11 11 10 9 9 8 7 9 10 9 11 14 17 20 21 18 23 91 177 186 172 63 0 19 9 324 345 3 15 14 17 7 2 12 9 13 13 1 350 313 320 38 50 15 337 10 32 348 26 82 104 142 222 186 121 259 208 166 177 148 146 172 88 54 23 91 125 136 129 151 178 176 161 154 153 146 147 127 104 90
8 7 7 8 9 9 8 8 7 8 8 7 6 4 3 4 5 6 5 6 10 13 18 15 16 55 148 189 197 243 21 46 264 316 347 1 23 20 22 10 4 12 14 24 24 21 26 25 47 54 47 24 348 12 359 313 60 47 287 206 202 159 133 224 223 189 171 117 108 112 88 80 8 54 134 150 146 191 192 176 156 148 148 148 148 133 110 96
7 6 6 5 6 6 5 4 3 3 3 4 2 0 0 358 359 2 0 359 2 4 9 11 11 59 99 138 180 189 84 119 257 341 340 360 30 18 24 13 6 6 13 27 21 26 30 23 46 48 33 50 17 23 299 315 51 67 295 300 223 171 134 195 218 221 188 107 100 144 118 101 89 75 145 137 147 162 138 138 140 138 143 140 136 132 119 111
5 4 3 3 2 2 2 1 360 359 359 359 358 357 356 354 353 355 355 354 353 355 360 4 4 111 111 99 130 111 91 207 254 343 331 23 27 7 23 12 4 349 10 33 19 24 41 27 43 77 60 62 78 135 294 324 41 108 262 312 274 189 130 179 190 192 155 109 130 130 103 135 145 141 77 78 107 115 114 126 130 130 136 132 130 134 133 133
0 360 360 359 359 358 357 357 356 355 355 354 353 353 351 349 348 348 350 348 346 346 347 354 355 196 167 123 120 67 25 217 211 342 349 23 354 13 13 4 10 360 44 47 27 40 69 36 31 77 70 116 146 40 316 332 15 110 213 287 289 302 147 177 152 130 118 102 71 67 72 188 172 133 97 118 124 119 122 124 125 128 130 129 130 132 135 134
355 355 355 355 355 354 353 353 353 352 351 350 348 348 345 343 342 342 344 343 341 336 337 343 342 170 187 179 105 60 281 184 140 63 37 77 52 33 359 14 32 35 66 55 39 63 85 77 273 27 144 201 133 333 354 43 313 191 185 253 303 314 302 234 99 118 124 114 76 68 50 126 148 103 77 154 144 131 130 125 133 134 132 133 129 131 129 123
348 350 351 351 351 350 349 349 349 348 347 345 344 344 342 339 336 336 338 337 335 328 330 332 318 128 159 149 91 69 225 144 116 70 64 75 65 41 356 31 45 50 75 60 46 61 91 153 193 141 144 181 353 291 159 125 217 189 161 240 273 292 282 251 152 182 153 132 112 105 122 167 169 104 114 192 163 143 135 136 152 140 139 141 134 134 122 115
344 346 346 347 347 346 346 345 345 344 343 342 341 340 339 336 332 332 333 332 330 321 321 326 312 207 168 127 102 185 188 136 103 62 63 66 68 74 30 40 50 58 70 70 69 70 97 148 156 125 112 39 311 302 196 175 178 151 82 326 313 323 288 221 152 204 195 185 153 124 137 173 200 292 181 177 162 154 146 146 162 149 147 148 143 137 121 116
340 342 343 344 344 343 343 342 342 341 340 340 338 337 337 334 329 328 329 329 325 316 313 322 313 203 158 102 121 183 171 152 97 56 49 48 69 79 46 40 49 59 59 75 112 97 90 123 112 99 276 119 310 341 152 209 124 127 68 330 311 355 336 251 172 203 181 193 176 128 100 192 219 253 168 157 155 156 148 151 162 155 157 153 147 141 130 120
335 339 339 340 341 340 340 339 339 338 337 338 336 335 334 331 328 325 328 330 319 311 312 321 288 179 149 95 172 156 159 166 110 66 43 27 65 72 34 23 41 57 51 66 124 113 86 93 105 115 224 107 283 287 125 22 35 74 65 112 313 6 330 272 182 165 180 187 153 134 285 242 235 238 152 151 156 153 151 160 165 159 160 153 149 145 139 131
330 334 334 337 338 336 336 337 337 336 336 336 334 332 330 328 326 323 326 327 316 312 310 301 173 165 141 182 179 151 158 165 125 82 70 33 191 183 6 5 35 57 50 54 91 101 86 73 84 91 99 135 273 303 20 5 22 78 54 66 31 38 283 291 326 141 192 247 89 107 254 257 264 235 160 159 158 156 158 166 167 164 160 155 153 147 148 157
323 327 330 332 333 333 334 335 335 335 334 333 333 330 328 327 322 322 322 313 327 322 300 204 180 153 97 3 179 157 165 181 178 114 100 47 62 236 336 353 91 75 52 50 75 90 83 59 71 80 297 319 28 15 352 350 8 39 36 324 342 181 266 305 290 161 190 273 82 114 240 266 260 205 169 163 162 161 161 168 171 168 165 161 159 152 161 183
318 320 325 326 329 331 331 333 334 334 333 332 333 329 328 326 318 318 301 280 335 317 238 179 187 150 89 343 161 161 186 202 207 197 162 19 26 345 344 40 130 109 148 107 85 77 56 52 68 94 341 10 55 65 26 10 344 1 60 262 257 199 273 314 308 204 197 253 87 173 231 268 246 181 172 171 171 168 162 172 177 172 172 166 165 171 175 182
313 313 319 323 325 327 329 332 332 333 333 333 334 330 329 325 315 314 258 277 342 298 187 201 180 129 71 143 141 190 209 197 205 208 218 329 328 341 3 100 116 121 140 116 73 13 23 41 36 323 42 39 63 78 34 355 315 326 10 282 246 212 235 283 305 300 170 193 239 225 228 252 248 176 179 180 175 175 171 176 179 174 175 172 175 182 182 175
308 310 315 318 321 324 327 330 331 335 335 334 336 331 328 321 311 302 207 313 346 134 151 310 135 76 286 210 179 217 179 179 217 230 228 263 294 327 359 92 101 114 75 27 20 20 5 15 47 44 27 14 31 76 70 261 244 273 282 280 282 264 233 238 277 284 154 204 242 236 247 256 253 182 186 188 177 182 181 175 176 174 173 177 181 183 186 180
303 308 311 315 318 320 324 329 332 337 337 338 341 334 329 329 318 261 235 342 355 154 231 247 192 161 243 252 220 195 170 211 248 229 207 220 296 308 63 87 63 105 70 20 344 7 41 21 33 31 337 282 231 132 175 214 205 233 250 233 253 275 261 232 244 252 189 215 247 231 241 254 240 190 193 193 179 182 181 170 174 179 179 181 183 189 188 186
297 305 307 311 315 317 324 329 331 337 342 342 344 346 352 3 356 323 331 341 266 196 264 234 227 247 258 296 193 228 273 242 248 201 187 243 278 160 115 45 30 47 67 101 290 327 85 54 331 253 245 225 212 189 188 202 195 214 237 238 244 252 272 262 253 267 179 189 254 235 236 254 246 210 201 191 176 178 179 178 186 186 185 186 186 194 189 194
294 301 305 307 312 317 322 327 332 338 345 348 354 13 91 97 50 314 319 306 271 247 250 242 223 242 261 245 197 220 139 224 277 199 185 295 208 141 164 16 47 40 335 133 285 342 62 42 260 241 229 206 195 195 201 214 196 217 225 261 279 242 260 275 267 278 151 176 266 262 246 255 252 231 210 182 178 190 188 185 189 186 188 191 188 194 195 201
295 299 304 306 311 316 320 327 332 334 342 357 25 79 139 145 141 190 183 298 288 278 229 248 221 262 269 227 215 157 106 75 288 239 217 338 121 168 231 62 110 195 314 38 24 356 16 277 257 251 205 158 127 161 188 238 224 231 195 278 289 258 273 292 297 327 53 193 273 290 266 256 259 249 219 194 196 202 198 191 187 181 183 190 189 193 195 198
291 297 305 306 310 314 317 325 326 332 350 19 58 101 143 157 156 167 130 286 291 297 237 229 205 251 286 251 210 160 139 185 220 243 271 80 140 183 126 104 134 172 12 104 151 75 321 255 245 225 141 139 358 32 138 256 275 230 191 208 271 273 296 289 311 344 324 256 259 279 273 254 258 259 237 210 203 195 193 191 188 187 184 187 191 191 187 186
287 301 306 304 310 310 314 321 316 326 356 47 70 102 152 175 163 157 133 298 293 293 259 220 193 197 215 209 175 157 166 199 185 220 305 100 139 149 137 140 127 142 215 173 142 170 250 255 192 111 114 148 186 98 139 184 281 261 213 208 248 266 244 243 291 337 319 303 278 288 286 258 229 244 246 219 165 173 175 174 188 205 199 191 192 193 190 187
290 305 305 306 312 307 314 316 299 326 349 61 73 95 151 177 173 164 63 29 311 299 284 240 227 200 199 156 166 182 166 229 215 226 337 103 145 138 141 154 119 183 217 173 132 217 260 266 123 118 116 139 172 232 184 176 241 295 240 216 233 249 250 263 333 358 342 320 319 2 304 276 225 237 248 191 157 199 186 183 193 202 205 200 195 195 198 197
293 301 301 307 316 310 316 309 276 345 348 101 76 85 166 181 182 188 77 53 307 276 195 187 204 185 189 157 179 176 109 282 260 252 29 79 151 137 133 169 67 199 203 163 147 247 267 340 80 130 156 146 179 254 228 169 154 290 257 208 211 221 238 277 349 359 280 265 293 59 259 275 291 231 237 198 195 208 193 199 200 198 204 200 193 192 197 199
283 290 293 300 326 322 320 271 263 306 281 190 20 284 197 181 187 215 47 36 293 236 140 230 288 155 183 201 158 145 187 269 345 17 61 84 27 84 143 211 109 207 190 111 339 267 172 68 50 107 137 161 199 257 230 160 138 243 245 128 127 175 222 245 141 252 242 272 289 217 167 269 276 250 235 190 193 214 206 209 209 204 206 198 194 196 195 196
274 284 293 294 329 327 306 282 277 253 200 208 271 262 185 175 190 151 73 23 278 194 125 252 143 138 169 16 67 132 223 256 112 256 309 72 18 67 141 214 178 195 184 125 255 268 171 171 194 157 133 188 213 229 194 156 160 243 216 128 118 185 213 216 198 252 297 28 291 236 150 255 267 257 272 164 194 225 217 212 211 208 205 194 196 201 197 195
283 287 291 289 319 311 277 285 285 244 222 228 239 135 128 157 165 70 80 236 269 103 94 101 133 164 67 48 2 84 292 325 142 255 345 43 351 64 165 211 155 173 207 143 218 249 220 202 193 156 158 213 219 221 181 161 193 231 153 106 19 71 163 182 199 256 48 64 266 240 158 217 265 231 133 132 214 231 222 214 213 209 204 195 196 200 198 191
278 278 283 287 312 300 270 278 271 242 242 228 160 134 129 117 70 69 169 238 255 244 147 128 175 165 103 117 295 327 194 244 134 17 14 30 350 29 119 184 91 128 258 350 258 251 299 287 175 148 182 197 163 130 144 154 174 127 77 30 355 10 35 45 79 87 69 246 256 230 180 195 271 243 180 187 219 219 210 207 212 210 202 200 200 195 191 182
263 273 284 290 296 293 285 283 253 223 236 187 151 132 116 49 68 121 216 243 259 257 130 182 222 111 121 158 225 208 179 251 191 133 130 158 357 26 83 337 44 67 349 346 301 299 337 344 231 249 185 131 105 90 26 16 74 94 67 40 351 330 10 24 359 54 105 251 260 233 187 189 240 246 205 222 243 219 197 196 202 203 199 198 198 191 186 180
259 269 274 276 275 275 276 273 252 257 239 164 150 97 89 82 193 184 233 294 297 215 176 191 210 161 158 161 226 205 183 239 197 165 174 164 179 188 185 209 187 357 322 284 293 325 305 231 250 315 219 136 112 92 2 355 32 81 84 61 11 330 352 349 301 240 218 248 255 161 157 201 241 248 236 238 245 227 204 204 200 196 191 191 191 188 183 175
255 264 259 258 264 267 271 270 272 282 237 164 145 58 84 157 229 210 219 269 237 214 150 131 129 142 144 138 253 219 173 227 204 172 183 154 187 253 252 224 167 167 259 226 325 325 292 294 284 175 274 173 145 147 201 282 104 138 151 142 136 34 332 290 263 273 276 267 258 118 126 250 261 260 241 241 245 222 209 214 203 188 183 184 183 179 177 174
252 249 244 253 257 257 264 269 273 266 219 165 104 71 116 199 236 216 219 234 232 318 50 117 104 107 136 178 239 204 172 247 192 154 195 103 140 250 257 249 178 140 162 181 227 199 224 298 232 180 231 179 172 181 166 142 145 178 159 137 155 160 220 259 236 258 290 294 275 154 162 227 237 257 249 257 268 222 206 203 174 170 172 171 171 170 175 181
241 232 243 261 257 251 254 260 268 244 200 158 102 145 190 207 220 207 222 227 223 328 17 72 94 116 225 268 279 230 201 255 161 121 185 170 184 205 192 220 200 146 124 168 245 179 185 257 252 228 287 167 177 195 138 114 117 217 128 117 187 179 183 231 214 211 289 312 276 217 222 225 217 251 258 287 307 172 167 152 144 157 163 160 171 178 178 185
236 234 250 259 252 247 245 250 250 222 184 133 152 210 211 204 189 192 206 187 179 160 128 50 87 143 247 279 278 259 210 236 176 124 227 212 203 210 204 218 194 171 166 169 212 197 200 267 275 17 338 169 168 189 141 127 175 170 130 184 224 173 145 211 268 358 65 286 267 214 252 274 293 274 239 102 129 163 151 161 158 162 166 167 179 182 181 188
232 239 243 240 241 241 238 240 226 203 165 131 199 220 211 205 193 188 197 164 157 138 130 173 202 180 217 233 228 229 190 247 199 164 224 241 228 202 204 244 197 185 192 176 201 216 202 271 258 143 207 241 187 154 39 15 134 131 180 219 205 132 110 115 271 324 57 259 268 213 254 270 268 277 301 110 181 202 189 182 168 167 174 180 185 183 185 191
223 228 234 232 233 230 227 223 200 177 131 158 224 239 213 211 210 190 182 151 122 113 139 200 217 185 190 200 220 205 171 193 186 168 199 229 247 195 168 213 207 196 201 158 167 245 136 265 275 143 189 291 16 70 343 332 91 129 209 236 127 174 227 118 166 256 218 259 271 247 270 270 235 221 228 191 201 204 196 186 179 186 190 188 186 185 189 192
210 214 249 228 223 220 204 189 175 154 134 199 222 238 213 214 233 218 190 159 139 141 172 218 223 199 181 178 191 180 179 194 175 176 201 189 234 212 170 195 194 193 200 148 167 221 118 213 276 335 295 302 31 137 196 228 10 72 339 318 58 183 210 179 168 203 187 254 275 285 304 282 225 190 200 200 201 198 188 186 194 199 195 187 184 185 190 191
198 225 274 191 199 203 185 163 155 157 199 215 216 222 218 223 240 236 217 207 204 183 200 218 213 213 203 184 189 182 192 200 172 180 218 195 222 229 204 198 162 145 37 94 138 183 113 199 245 329 330 248 183 205 191 182 177 155 172 227 229 190 186 264 233 167 174 243 265 278 281 269 214 167 196 194 200 198 183 186 201 202 193 187 185 184 186 188
183 240 240 173 180 179 162 150 175 188 208 230 221 216 230 234 237 241 230 216 216 219 187 185 200 207 197 200 219 189 176 194 182 188 224 215 218 230 212 190 158 148 106 72 138 196 162 195 207 188 241 214 216 222 194 188 182 175 184 194 201 196 171 267 258 207 173 231 227 237 270 265 222 153 200 186 195 198 183 189 201 195 188 188 188 186 183 186
190 229 195 172 174 164 151 170 211 182 215 229 216 222 231 232 228 227 227 215 221 236 218 199 209 204 201 211 213 187 166 190 196 195 228 224 210 215 209 182 157 151 146 130 206 207 148 137 201 228 227 216 240 301 40 208 195 196 211 192 187 188 173 214 245 226 164 230 218 196 269 268 237 150 196 193 196 189 182 194 198 187 188 186 184 186 183 186
206 210 137 167 171 162 159 219 205 195 229 224 228 249 236 228 232 216 207 205 210 212 219 232 205 200 221 213 194 194 188 202 201 193 224 236 212 214 197 167 154 146 144 148 197 191 131 129 208 263 285 330 357 355 7 24 60 234 238 191 187 206 201 211 230 133 176 225 182 200 258 265 279 143 190 180 188 181 184 197 191 180 187 183 179 185 183 186
183 179 105 170 178 178 191 211 196 210 224 219 234 241 240 247 236 218 203 201 201 186 202 223 199 205 224 194 180 204 195 206 219 205 212 218 208 237 186 166 169 164 171 197 181 175 193 177 172 266 306 309 323 353 342 331 206 225 234 197 206 220 217 227 34 94 247 222 171 216 257 258 292 18 2 104 149 181 192 194 184 177 180 180 179 181 180 180
161 182 131 180 189 198 222 208 181 203 212 214 231 234 235 248 232 216 210 208 207 184 194 226 208 201 208 160 185 214 202 214 232 221 212 211 226 308 157 192 196 185 193 222 163 169 184 181 170 184 241 259 263 263 240 223 205 208 225 211 215 216 207 208 220 220 240 226 184 225 254 258 267 33 286 223 177 183 194 184 184 184 177 177 179 180 179 175
172 201 175 172 194 212 237 226 163 187 196 197 226 235 226 232 236 208 204 212 216 200 213 241 196 181 194 180 200 223 222 225 229 225 206 198 226 278 250 221 219 201 204 125 149 157 142 196 204 202 216 234 250 255 197 131 185 222 221 213 209 210 206 205 226 233 233 227 234 240 245 258 264 249 214 229 201 188 193 183 188 191 179 179 180 176 176 175
188 210 182 159 179 213 225 219 192 210 192 175 196 225 218 223 233 216 199 204 202 202 225 240 186 193 204 190 199 227 230 227 226 226 216 193 225 269 267 206 223 217 193 149 174 142 108 235 223 212 227 237 247 254 217 154 239 252 252 237 210 197 200 205 222 232 217 161 252 251 244 252 261 252 214 216 209 197 198 192 191 190 181 180 175 168 175 181
198 217 186 175 181 200 207 204 193 203 210 199 207 237 227 215 213 208 201 189 182 194 209 223 212 210 204 189 197 226 232 229 229 226 223 221 222 226 264 228 220 217 165 151 231 147 139 242 229 202 233 245 249 256 248 237 255 263 265 258 225 188 199 212 226 232 219 214 246 257 256 254 260 256 226 212 205 202 204 198 191 181 172 171 168 170 178 183
205 262 191 184 202 206 203 201 190 197 213 212 217 236 233 221 211 205 184 162 194 206 202 213 222 214 202 194 199 220 227 222 218 219 217 222 220 203 203 244 229 210 164 166 226 160 161 247 236 201 236 252 252 254 250 252 261 265 263 259 239 210 214 220 232 236 230 233 246 257 263 264 264 261 247 223 204 203 201 187 176 170 170 173 174 177 182 186
203 217 183 185 220 218 208 199 186 197 213 210 219 232 232 227 221 212 181 180 201 206 199 215 225 210 198 203 207 222 227 213 210 220 209 208 218 203 202 217 168 128 185 175 192 229 207 240 236 181 237 261 259 250 236 242 251 259 263 260 246 233 235 232 236 240 237 240 246 251 260 266 267 265 258 233 195 186 180 175 178 179 178 177 177 180 183 186
208 184 163 165 222 208 195 191 186 202 212 204 220 230 224 225 223 213 202 210 212 203 192 211 223 211 193 209 217 226 229 215 216 227 209 195 205 198 203 202 154 148 191 181 166 206 207 226 47 108 229 261 264 234 206 250 267 263 265 264 247 232 238 234 231 234 232 234 245 251 254 258 263 269 255 209 181 175 182 183 183 184 181 178 178 183 185 186
209 182 169 181 220 203 199 200 187 199 218 211 217 226 223 227 221 202 209 230 225 221 207 207 216 210 200 216 221 226 229 221 221 230 208 191 203 197 201 187 165 165 170 171 181 186 181 196 152 140 227 260 272 98 110 85 300 266 263 257 233 223 231 235 235 237 232 228 237 244 242 248 258 270 225 212 186 184 193 187 180 182 182 180 181 181 181 185